User: anonymous   Login
Location: Unspecified
(0.0000°N, 0.0000°E)
Time: 23:07:35
(UTC+00:00)
Language:

NOAA 9 - Orbit

View from above orbital plane
View from above orbital plane
View from above satellite
View from above satellite

Ground track
Ground track

The orbit data is extracted from the following two-line orbital elements,

1 15427U 84123A   21125.44016580  .00000021  00000-0  33768-4 0  9990
2 15427  98.9900  87.7895 0013885 241.2500 227.2625 14.16130977878861
Epoch (UTC): 05 May 2021 10:33:50
Eccentricity: 0.0013885
inclination: 98.9900°
perigee height: 828 km
apogee height: 848 km
right ascension of ascending node: 87.7895°
argument of perigee: 241.2500°
revolutions per day: 14.16130977
mean anomaly at epoch: 227.2625°
orbit number at epoch: 87886

The dashed part of the orbit path shows where the satellite is in the earth's shadow,  

DLR